GW719 Weather Reports


time (UTC)temp
C
wind
direction
speed
KPH
gust
KPH
rain 1hr
cm
rain 24hr
cm
rain mn
cm
humidity
%
barometer
mb
20260510175517 16 8 3.2 9.7 0.03 0.08 0.08 80 1018.0
20260510174518 16 6 3.2 6.4 0.03 0.08 0.08 79 1018.0
20260510173558 16 3 4.8 8.0 0.03 0.05 0.05 77 1018.3
20260510172518 17 360 3.2 8.0 0.00 0.05 0.05 74 1019.0
20260510171538 17 357 3.2 8.0 0.00 0.03 0.03 71 1018.9
20260510170518 17 1 1.6 6.4 0.00 0.03 0.03 72 1018.7
20260510165516 17 2 3.2 6.4 0.00 0.03 0.03 72 1018.5
20260510164516 18 3 3.2 8.0 0.00 0.03 0.03 74 1018.2
20260510163516 18 3 4.8 8.0 0.00 0.03 0.03 76 1017.6
20260510162536 17 13 1.6 6.4 0.00 0.03 0.03 78 1017.3
20260510161516 17 15 1.6 4.8 0.00 0.03 0.03 78 1016.8
20260510160517 17 20 3.2 6.4 0.00 0.03 0.03 78 1016.9
20260510155549 17 14 4.8 9.7 0.00 0.03 0.03 77 1016.5
20260510154537 17 9 3.2 8.0 0.00 0.03 0.03 78 1015.9
20260510153520 17 9 3.2 8.0 0.00 0.03 0.03 78 1015.7
20260510152517 17 7 4.8 9.7 0.00 0.03 0.03 78 1015.7
20260510151517 17 8 1.6 4.8 0.00 0.03 0.03 81 1015.6
20260510150518 17 11 1.6 3.2 0.00 0.03 0.03 82 1015.4
20260510145537 17 15 0.0 3.2 0.00 0.03 0.03 82 1015.3
20260510144518 17 126 0.0 3.2 0.00 0.03 0.03 82 1015.0
20260510143518 17 12 1.6 3.2 0.00 0.03 0.03 84 1015.3
20260510142519 17 0.0 0.0 0.00 0.03 0.03 83 1015.0
20260510141518 17 204 0.0 3.2 0.00 0.03 0.03 84 1015.2
20260510140518 17 46 0.0 1.6 0.00 0.03 0.03 85 1015.5
20260510135518 17 0.0 0.0 0.00 0.03 0.03 86 1015.2
20260510134538 17 12 0.0 3.2 0.00 0.03 0.03 87 1015.4
20260510133516 17 32 0.0 3.2 0.00 0.03 0.03 87 1015.3
20260510132516 17 0.0 0.0 0.00 0.03 0.03 86 1015.5
20260510131516 17 189 1.6 4.8 0.00 0.03 0.03 86 1015.4
20260510130516 16 206 1.6 4.8 0.00 0.03 0.03 88 1015.5
20260510125516 16 234 0.0 4.8 0.00 0.03 0.03 89 1015.4
20260510124517 16 0.0 0.0 0.00 0.03 0.03 89 1015.2
20260510123517 16 0.0 0.0 0.00 0.03 0.03 89 1014.6
20260510122517 16 0.0 0.0 0.00 0.03 0.03 89 1014.3
20260510121517 16 0.0 0.0 0.00 0.03 0.03 89 1013.9
20260510120517 16 0.0 0.0 0.00 0.03 0.03 89 1013.7
20260510115517 16 0.0 0.0 0.00 0.03 0.03 89 1013.3
20260510114517 16 0.0 0.0 0.00 0.03 0.03 89 1012.8
20260510113518 16 0.0 0.0 0.00 0.03 0.03 87 1012.7
20260510112518 16 354 0.0 1.6 0.00 0.03 0.03 86 1012.5
20260510111518 16 0.0 0.0 0.00 0.03 0.03 85 1012.5
20260510110538 17 0.0 0.0 0.00 0.03 0.03 84 1012.4
20260510105538 17 0.0 0.0 0.00 0.03 0.03 82 1012.1
20260510104515 17 151 0.0 1.6 0.00 0.03 0.03 80 1012.0
20260510103515 17 17 0.0 1.6 0.00 0.03 0.03 79 1012.0
20260510102519 18 71 0.0 3.2 0.00 0.03 0.03 78 1011.9
20260510101519 17 92 1.6 8.0 0.00 0.03 0.03 80 1011.8
20260510100536 17 103 0.0 3.2 0.00 0.03 0.03 80 1011.7
20260510095536 17 72 0.0 3.2 0.00 0.03 0.03 82 1011.6
20260510094516 17 0.0 0.0 0.00 0.03 0.03 83 1011.6
20260510093516 17 199 0.0 1.6 0.00 0.03 0.03 80 1011.4
20260510092517 17 212 0.0 1.6 0.00 0.03 0.03 80 1011.2
20260510091517 17 172 0.0 1.6 0.00 0.03 0.03 78 1011.2
20260510090517 17 0.0 0.0 0.00 0.03 0.03 78 1011.4
20260510085517 17 0.0 0.0 0.00 0.03 0.03 77 1011.2
20260510084518 18 0.0 0.0 0.00 0.03 0.03 77 1010.8
20260510083520 18 211 0.0 1.6 0.00 0.03 0.03 76 1010.2
20260510082538 18 13 1.6 4.8 0.00 0.03 0.03 75 1009.8
20260510081518 18 13 1.6 4.8 0.00 0.03 0.03 75 1009.4
20260510080518 18 8 6.4 8.0 0.00 0.03 0.03 75 1009.1
20260510075519 18 8 1.6 6.4 0.00 0.03 0.03 76 1008.2
20260510074519 18 258 1.6 9.7 0.03 0.03 0.03 76 1008.3
20260510073516 18 242 3.2 9.7 0.03 0.03 0.03 76 1008.3
20260510072516 18 29 3.2 8.0 0.03 0.03 0.03 78 1009.1
20260510071537 18 204 4.8 22.5 0.03 0.03 0.03 80 1009.4
20260510070516 18 191 12.9 22.5 0.03 0.03 0.03 79 1009.6
20260510065516 18 193 16.1 32.2 0.03 0.03 0.03 76 1009.7
20260510064517 20 193 11.3 20.9 0.00 0.00 0.00 67 1011.5
20260510063517 20 261 8.0 19.3 0.00 0.00 0.00 64 1012.7
20260510062517 21 262 11.3 25.7 0.00 0.00 0.00 62 1012.8
20260510061517 21 224 3.2 6.4 0.00 0.00 0.00 62 1012.3
20260510060559 21 180 3.2 4.8 0.00 0.00 0.00 64 1012.2
20260510055518 21 252 4.8 8.0 0.00 0.00 0.00 67 1012.1
20260510054518 20 81 3.2 8.0 0.00 0.00 0.00 66 1012.0
20260510053518 20 31 1.6 4.8 0.00 0.00 0.00 67 1012.3
20260510052517 19 0.0 0.0 0.00 0.00 0.00 69 1012.5
20260510051518 19 0.0 0.0 0.00 0.00 0.00 71 1012.4
20260510050516 19 4 0.0 3.2 0.00 0.00 0.00 74 1012.3
20260510045516 19 25 0.0 1.6 0.00 0.00 0.00 76 1011.8
20260510044516 20 8 1.6 4.8 0.00 0.00 0.00 76 1011.0
20260510043516 19 12 0.0 3.2 0.00 0.00 0.00 72 1010.9
20260510042516 20 0.0 0.0 0.00 0.00 0.00 71 1010.8
20260510041516 20 192 0.0 0.0 0.00 0.00 0.00 71 1010.7
20260510040517 20 0.0 0.0 0.00 0.00 0.00 71 1010.7
20260510035517 20 0.0 0.0 0.00 0.00 0.00 69 1010.6
20260510034517 20 0.0 0.0 0.00 0.00 0.00 69 1010.5
20260510033517 20 0.0 0.0 0.00 0.00 0.00 68 1010.5
20260510032517 20 0.0 0.0 0.00 0.00 0.00 69 1010.4
20260510031517 20 85 0.0 1.6 0.00 0.00 0.00 68 1010.4
20260510030520 20 0.0 0.0 0.00 0.00 0.00 68 1010.4
20260510025518 20 0.0 0.0 0.00 0.00 0.00 67 1010.4
20260510024558 21 0.0 0.0 0.00 0.00 0.00 66 1010.1
20260510023518 21 18 0.0 1.6 0.00 0.00 0.00 62 1009.8
20260510022519 22 0.0 0.0 0.00 0.00 0.00 57 1009.2
20260510021515 22 0.0 0.0 0.00 0.00 0.00 55 1008.8
20260510020516 22 0.0 0.0 0.00 0.00 0.00 52 1008.7
20260510015516 23 74 0.0 1.6 0.00 0.00 0.00 52 1008.4
20260510014516 23 0.0 0.0 0.00 0.00 0.00 50 1008.3
20260510013516 24 102 0.0 4.8 0.00 0.00 0.00 47 1008.1
20260510012516 25 144 0.0 1.6 0.00 0.03 0.00 46 1008.0
20260510011516 25 127 0.0 3.2 0.00 0.08 0.00 44 1007.9
20260510010516 25 102 0.0 3.2 0.00 0.08 0.00 42 1007.8
20260510005517 26 155 0.0 3.2 0.00 0.08 0.00 40 1007.7
20260510004517 26 167 1.6 6.4 0.00 0.08 0.00 38 1007.6
20260510003537 26 182 1.6 6.4 0.00 0.08 0.00 37 1007.5
20260510002518 27 153 3.2 8.0 0.00 0.53 0.00 36 1007.5
20260510001518 27 159 3.2 9.7 0.00 0.58 0.00 37 1007.5
20260510000517 27 112 3.2 9.7 0.00 0.61 0.00 38 1007.5
20260509235518 27 134 4.8 11.3 0.00 0.64 0.00 37 1007.5
20260509234518 27 126 4.8 12.9 0.00 0.69 0.00 36 1007.6
20260509233518 27 111 3.2 9.7 0.00 0.69 0.00 36 1007.6
20260509232516 27 170 4.8 12.9 0.00 0.69 0.00 36 1007.7
20260509231516 27 127 4.8 12.9 0.00 0.69 0.00 36 1007.8
20260509230516 28 102 4.8 11.3 0.00 0.69 0.00 36 1007.9
20260509225516 28 119 4.8 11.3 0.00 0.69 0.00 35 1008.0
20260509224516 28 99 6.4 16.1 0.00 0.69 0.00 34 1008.0
20260509223536 28 138 4.8 9.7 0.00 0.69 0.00 34 1007.8
20260509222517 28 107 6.4 12.9 0.00 0.69 0.00 33 1007.7
20260509221537 28 105 4.8 11.3 0.00 0.69 0.00 29 1007.8
20260509220517 28 102 6.4 14.5 0.00 0.69 0.00 29 1007.9
20260509215518 28 111 3.2 8.0 0.00 0.69 0.00 31 1007.9
20260509214517 28 100 6.4 17.7 0.00 0.69 0.00 29 1007.9
20260509213522 29 101 6.4 12.9 0.00 0.69 0.00 29 1007.9
20260509212518 28 109 4.8 16.1 0.00 0.69 0.00 28 1008.0
20260509211538 29 103 6.4 14.5 0.00 0.69 0.00 24 1008.1
20260509210518 29 117 4.8 9.7 0.00 0.69 0.00 27 1008.3
20260509205518 29 106 4.8 12.9 0.00 0.69 0.00 29 1008.4
20260509204518 28 72 6.4 14.5 0.00 0.69 0.00 28 1008.5
20260509203518 28 91 6.4 11.3 0.00 0.69 0.00 26 1008.9
20260509202516 29 104 4.8 14.5 0.00 0.69 0.00 31 1008.6
20260509201516 29 131 3.2 8.0 0.00 0.69 0.00 31 1008.6
20260509200516 28 176 6.4 16.1 0.00 0.69 0.00 34 1008.7
20260509195516 28 107 4.8 12.9 0.00 0.69 0.00 33 1008.7
20260509194516 29 114 6.4 12.9 0.00 0.69 0.00 31 1009.0
20260509193517 29 135 3.2 9.7 0.00 0.69 0.00 31 1009.0
20260509192536 28 154 3.2 8.0 0.00 0.69 0.00 28 1009.1
20260509191519 29 159 3.2 11.3 0.00 0.69 0.00 29 1009.1
20260509190517 28 102 3.2 9.7 0.00 0.69 0.00 37 1009.1
20260509185637 28 114 3.2 8.0 0.00 0.69 0.00 37 1009.1
20260509184517 28 92 6.4 12.9 0.00 0.69 0.00 38 1009.1
20260509183517 28 114 1.6 6.4 0.00 0.69 0.00 37 1009.2
20260509182537 28 155 1.6 6.4 0.00 0.69 0.00 39 1009.3
20260509181518 27 45 3.2 6.4 0.00 0.69 0.00 45 1009.4
20260509180518 27 105 4.8 11.3 0.00 0.69 0.00 45 1009.6